User: anonymous   Login
Location: Bakov nad Jizerou
(50.4784°N, 14.9394°E)
Time: 08:45:32
(UTC+00:00)
Language:

RESURS O1 DEB - Orbit

View from above orbital plane
View from above orbital plane
View from above satellite
View from above satellite

Ground track
Ground track

The orbit data is extracted from the following two-line orbital elements,

1 48501U 94074EC  23128.67511329  .26070317  27423-5  81353-2 0  9993
2 48501  97.8361 190.5464 0019573 272.9043  87.0007 16.26016355117955
Epoch (UTC): 08 May 2023 16:12:09
Eccentricity: 0.0019573
inclination: 97.8361°
perigee height: 190 km
apogee height: 216 km
right ascension of ascending node: 190.5464°
argument of perigee: 272.9043°
revolutions per day: 16.26016355
mean anomaly at epoch: 87.0007°
orbit number at epoch: 11795

The dashed part of the orbit path shows where the satellite is in the earth's shadow,  

DLR